Location: Beuvrequen
(50.8014°N, 1.6652°E)
Time: 22:11:24
(UTC+00:00)

ATLAS 3B R/B - Pass Details

Date: 16 October 2021
Orbit: 989 x 1206 km, 63.8° (Epoch: 25 November)

Event Time Altitude Azimuth Distance (km) Brightness Sun altitude
Rises 20:17:40 0° 264° (W) 3,755 6.3 -31.5°
Reaches altitude 10° 20:20:29 10° 273° (W) 2,831 5.6 -31.9°
Maximum altitude 20:26:33 35° 339° (NNW) 1,649 4.0 -32.7°
Enters shadow 20:30:06 22° 27° (NNE) 2,168 4.3 -33.2°
